Wind_Speed
46 48 48 49 49 50 51 51 51 51 50 49 50 50 50 51 51 50 50 49 49 48 48 47 47 46 46 45 45 44 44 43 42 41 40 39 38 37 36 35 34 32 30
44 45 46 47 47 48 49 49 49 49 49 49 49 48 48 48 48 47 47 47 47 47 46 46 46 45 45 45 44 44 44 43 42 41 39 38 37 35 34 33 32 31 30
43 43 44 45 45 45 46 46 46 46 47 47 47 47 47 47 47 47 46 46 46 46 46 45 45 45 45 44 44 43 43 42 41 40 39 37 36 35 33 32 31 30 29
43 43 44 44 44 44 44 44 45 45 45 46 46 46 46 46 45 45 45 45 45 45 44 44 43 43 43 43 42 41 41 40 40 39 37 35 34 32 31 31 30 29 28
42 42 42 42 42 42 43 43 43 44 44 44 44 45 45 44 44 43 43 44 44 44 43 43 42 42 42 41 40 40 39 38 37 36 34 32 31 30 30 30 29 28 28
42 42 41 41 41 41 41 41 42 42 43 43 43 43 43 42 42 42 42 42 42 42 41 41 41 41 40 39 38 38 36 35 34 33 32 31 30 30 29 28 28 27 27
41 41 41 41 41 41 41 41 41 42 42 42 41 41 41 40 41 41 41 41 41 40 40 39 39 38 37 37 36 35 34 33 32 31 30 30 29 28 28 28 27 28 27
39 40 40 40 40 41 41 40 40 40 40 41 41 40 40 40 40 39 39 39 39 39 38 37 36 35 35 34 34 33 32 32 31 30 29 29 28 28 28 28 28 28 28
38 38 38 39 39 39 39 39 39 39 39 39 39 39 38 38 38 38 38 37 37 36 36 34 34 34 33 33 32 32 31 30 29 29 28 28 27 28 28 28 28 28 28
36 37 37 38 37 37 37 37 37 37 37 37 37 37 37 37 37 36 36 35 35 34 33 33 33 33 32 31 30 30 29 29 28 28 28 28 27 27 27 27 28 28 28
34 35 36 37 36 36 36 36 36 36 36 36 36 36 36 36 35 35 35 34 33 33 32 32 31 31 30 29 29 29 28 28 28 28 28 27 27 27 27 27 28 28 29
33 33 34 35 35 35 36 35 35 35 35 35 35 35 35 34 34 33 33 32 32 32 31 31 30 29 29 29 28 28 28 28 28 28 28 28 28 28 28 28 28 29 29
31 32 32 33 33 34 34 34 34 34 34 34 34 34 34 33 33 33 32 32 31 31 30 30 29 29 28 28 28 27 28 28 28 28 28 28 28 29 29 29 30 30 30
30 31 31 32 32 33 33 33 33 33 33 33 33 33 33 33 32 32 32 32 31 30 29 29 29 29 28 28 28 28 28 28 28 28 28 29 29 30 30 30 31 32 32
29 29 30 31 32 32 32 32 32 32 33 33 33 33 33 32 32 32 32 31 30 30 30 30 29 29 29 28 28 28 29 29 29 29 29 30 30 31 31 32 32 33 33
29 29 29 30 31 31 32 32 32 32 32 33 33 33 32 32 31 31 31 31 31 30 30 30 30 30 29 29 29 29 29 30 30 30 31 31 31 32 32 33 33 34 34
28 29 29 30 30 31 31 31 31 31 32 32 31 31 31 31 31 30 30 29 30 30 30 31 31 31 31 31 30 30 31 31 31 32 32 32 33 33 33 34 34 35 35
28 28 29 29 29 29 30 30 30 30 30 30 30 30 30 30 30 30 30 30 30 30 31 31 32 32 32 32 32 32 32 32 33 33 33 33 33 34 35 35 35 36 36
27 28 28 28 28 28 29 29 29 29 29 29 29 30 30 30 30 30 30 30 30 30 31 31 31 32 32 32 32 33 34 34 34 34 34 34 34 35 36 36 37 37 37
27 28 28 28 28 28 28 29 29 29 29 29 30 30 31 30 30 31 31 31 31 31 31 31 32 32 33 33 34 34 34 35 35 35 35 36 36 37 37 38 38 38 38
27 28 28 28 28 29 29 29 30 30 30 31 31 31 31 31 31 32 32 32 33 33 33 33 33 33 34 34 35 35 35 35 36 36 37 37 38 38 38 39 39 39 39
27 28 28 29 29 30 30 30 31 32 32 32 32 32 33 33 32 32 33 33 34 34 35 35 35 35 35 36 36 36 36 36 37 38 38 39 39 40 40 40 40 40 40
27 27 28 29 30 30 31 32 32 32 33 33 33 33 33 33 34 34 34 34 35 35 36 36 36 36 36 36 36 37 37 38 39 39 40 40 40 41 41 41 41 41 41
27 28 29 30 30 31 31 31 32 32 32 33 33 33 34 34 35 35 36 36 36 36 36 37 37 38 38 38 38 38 39 39 40 40 40 41 41 41 42 42 42 42 42
27 28 28 29 29 30 31 31 31 31 31 31 32 33 33 34 34 35 35 36 36 36 37 37 38 38 39 39 40 40 40 40 41 41 42 42 42 42 42 43 43 43 42
27 27 28 28 29 29 30 30 30 30 31 31 32 32 33 33 34 34 35 35 36 36 37 38 38 39 40 41 41 41 42 42 42 42 42 42 42 43 43 43 43 43 43
Wind_Direction
252 253 254 256 258 258 259 261 262 263 264 266 269 271 273 275 276 276 277 277 278 279 279 280 281 281 281 281 282 281 282 283 283 283 283 283 283 283 284 285 285 285 285
252 253 254 256 257 259 260 262 263 264 265 266 268 269 271 273 275 275 276 277 278 279 279 279 279 280 280 280 280 280 281 281 282 282 281 280 280 281 282 283 284 284 283
252 254 255 257 258 259 260 261 262 264 265 267 268 270 272 273 274 275 276 277 278 278 279 279 279 279 279 279 279 280 280 280 280 280 280 279 278 278 280 281 281 282 282
251 253 254 256 257 258 259 261 262 264 266 267 269 271 272 273 274 275 276 277 277 278 278 278 278 278 278 278 278 279 279 279 278 278 278 277 276 277 278 278 279 280 280
250 252 254 254 256 257 259 260 262 264 266 267 269 270 271 272 273 274 276 276 277 277 277 277 277 277 277 277 277 278 278 277 277 276 275 275 274 275 276 277 277 278 279
251 252 253 254 255 256 258 260 261 263 264 266 267 269 270 271 273 274 275 276 276 277 277 277 277 277 277 276 276 276 275 275 275 274 273 273 273 274 275 275 276 277 278
252 253 254 255 256 257 259 260 261 262 263 265 267 269 270 272 273 274 275 276 276 276 277 277 277 276 276 275 275 274 273 273 273 273 272 271 271 273 273 274 275 276 277
253 253 255 256 257 258 259 260 261 262 263 265 267 269 270 271 273 275 276 276 276 276 276 276 275 275 275 274 273 272 271 271 271 271 269 270 271 272 273 274 275 275 276
253 253 254 256 257 258 259 260 262 263 265 266 268 269 271 272 274 275 275 276 275 275 274 274 274 274 274 273 272 270 270 270 270 269 268 269 271 272 273 274 274 275 276
253 253 254 255 257 258 259 260 262 263 265 267 269 270 271 272 274 275 275 275 275 274 273 273 274 273 273 272 271 270 268 268 268 268 269 270 271 272 273 274 275 276 277
253 254 254 255 256 258 259 261 262 264 265 267 269 270 270 271 272 273 274 274 274 273 273 273 273 272 271 270 270 269 268 269 268 268 269 270 271 272 274 275 275 276 278
254 254 255 256 256 258 259 261 262 264 266 267 268 269 270 270 271 272 273 273 273 272 272 271 271 270 270 269 270 269 269 270 269 269 270 270 271 273 274 274 276 278 279
255 255 256 257 257 258 260 261 263 264 266 267 269 269 270 270 271 271 272 272 271 271 270 270 269 269 269 269 269 270 271 271 271 271 271 271 272 273 274 276 278 279 280
256 256 256 257 258 260 261 263 263 264 265 266 268 269 270 270 270 270 270 270 269 269 269 269 268 269 270 270 269 269 270 271 271 272 273 273 273 274 276 277 279 280 281
257 257 257 257 259 260 262 263 264 264 265 266 268 269 270 269 270 270 269 268 268 268 268 268 268 268 269 269 269 269 270 270 271 272 274 274 275 276 277 279 280 280 282
259 259 258 259 260 261 261 263 264 265 266 266 268 269 269 269 269 268 268 267 267 267 267 267 268 268 268 269 270 270 270 270 271 273 274 275 276 276 278 279 280 281 282
259 259 259 260 262 262 262 263 264 266 267 267 267 268 268 268 267 267 267 268 268 268 267 267 268 268 269 269 270 270 271 271 272 273 274 275 276 277 278 279 280 282 283
259 259 260 261 261 261 261 263 265 266 267 267 267 267 267 268 268 267 267 268 269 269 269 269 269 269 268 269 270 271 271 272 272 273 274 275 276 277 278 279 281 282 283
259 260 261 262 262 262 262 263 265 267 268 268 268 268 268 268 268 268 268 269 269 270 270 270 270 269 269 270 270 271 272 272 273 274 275 275 276 277 278 280 281 282 283
261 262 262 262 262 263 264 264 266 267 268 268 269 269 270 270 268 268 269 269 270 270 271 271 271 271 271 271 272 272 272 273 274 274 275 276 276 277 278 280 281 282 283
262 263 263 263 263 265 265 266 267 268 269 269 269 269 270 270 269 270 270 270 270 270 271 271 272 272 272 273 273 273 273 273 274 275 276 276 277 278 279 280 281 282 283
264 264 264 264 265 266 266 268 269 269 269 269 269 269 269 269 270 271 271 271 270 270 271 271 272 272 273 274 273 273 273 273 274 275 276 277 277 278 279 280 281 282 282
267 267 266 266 266 267 267 268 270 270 269 269 269 269 269 269 270 271 272 272 272 272 272 272 272 273 273 273 273 273 274 274 275 275 276 277 278 278 279 280 281 282 282
270 269 268 268 268 269 269 269 270 270 270 270 269 270 270 270 271 272 272 273 273 273 273 273 273 273 273 273 273 274 274 275 275 275 276 277 278 278 279 280 281 281 282
273 271 270 270 270 270 270 270 270 271 271 271 271 271 272 272 272 273 273 273 273 274 274 274 274 273 273 274 274 275 275 276 276 276 277 277 278 279 279 280 281 281 282
274 274 273 272 272 273 272 271 271 272 272 272 272 273 273 274 274 274 274 274 274 275 275 275 275 275 274 274 274 275 275 275 276 277 277 277 278 278 278 279 280 281 281
Height
5709 5711 5713 5714 5716 5717 5718 5719 5720 5721 5721 5721 5722 5722 5722 5722 5721 5720 5720 5719 5718 5716 5715 5714 5712 5711 5709 5707 5705 5703 5701 5700 5698 5697 5695 5693 5691 5689 5688 5686 5685 5683 5682
5698 5700 5701 5703 5704 5705 5706 5707 5708 5709 5709 5710 5710 5710 5710 5709 5709 5708 5707 5706 5705 5704 5703 5702 5700 5699 5698 5696 5694 5692 5691 5689 5687 5686 5685 5683 5681 5680 5679 5677 5676 5675 5673
5687 5689 5690 5691 5693 5694 5695 5695 5696 5697 5698 5698 5698 5698 5698 5697 5697 5696 5695 5695 5694 5692 5691 5690 5689 5687 5686 5684 5683 5681 5679 5678 5676 5675 5674 5673 5672 5671 5670 5668 5667 5666 5665
5676 5677 5679 5680 5681 5682 5683 5684 5685 5685 5686 5686 5686 5686 5686 5686 5685 5684 5684 5683 5682 5680 5679 5678 5677 5675 5674 5673 5671 5670 5668 5667 5666 5665 5664 5663 5662 5661 5660 5659 5659 5658 5657
5665 5666 5668 5669 5670 5671 5672 5673 5673 5674 5674 5675 5675 5675 5674 5674 5673 5673 5672 5671 5670 5669 5668 5666 5665 5664 5663 5661 5660 5659 5658 5657 5656 5655 5654 5653 5652 5652 5651 5651 5650 5649 5649
5654 5655 5657 5658 5659 5660 5661 5662 5663 5663 5663 5664 5664 5664 5663 5663 5662 5661 5661 5660 5659 5657 5656 5655 5654 5653 5652 5650 5649 5648 5647 5647 5646 5645 5644 5644 5644 5643 5642 5642 5641 5641 5640
5643 5645 5646 5647 5648 5649 5650 5651 5652 5652 5653 5653 5653 5653 5652 5652 5651 5651 5650 5649 5647 5646 5645 5644 5643 5642 5641 5640 5639 5638 5637 5637 5636 5636 5636 5635 5635 5634 5634 5634 5633 5632 5632
5632 5634 5635 5636 5637 5638 5639 5640 5641 5641 5642 5642 5642 5642 5642 5641 5640 5640 5639 5637 5636 5635 5634 5633 5633 5632 5631 5630 5629 5628 5628 5628 5627 5627 5627 5626 5626 5626 5626 5625 5624 5624 5623
5622 5623 5624 5626 5627 5628 5629 5630 5630 5631 5631 5631 5631 5631 5631 5630 5630 5629 5628 5627 5626 5625 5624 5623 5623 5622 5621 5620 5620 5619 5619 5619 5618 5618 5618 5618 5617 5617 5617 5617 5616 5615 5615
5611 5613 5614 5615 5617 5618 5619 5619 5620 5620 5621 5621 5621 5620 5620 5620 5619 5618 5618 5617 5616 5615 5614 5614 5613 5613 5612 5611 5611 5610 5610 5610 5610 5609 5609 5609 5609 5609 5608 5608 5607 5607 5606
5601 5603 5604 5605 5607 5608 5609 5609 5610 5610 5611 5611 5610 5610 5610 5610 5609 5608 5608 5607 5606 5606 5605 5605 5604 5603 5603 5603 5602 5602 5602 5602 5601 5601 5601 5601 5600 5600 5600 5599 5599 5598 5597
5592 5593 5594 5596 5597 5598 5599 5599 5600 5600 5601 5601 5600 5600 5600 5600 5599 5599 5598 5598 5597 5597 5596 5595 5595 5595 5594 5594 5594 5593 5593 5593 5593 5593 5593 5592 5592 5592 5591 5590 5590 5589 5588
5582 5583 5585 5586 5587 5588 5589 5590 5590 5591 5591 5591 5591 5591 5590 5590 5590 5589 5589 5588 5588 5587 5587 5587 5586 5586 5586 5585 5585 5585 5585 5585 5585 5584 5584 5584 5583 5583 5582 5581 5580 5579 5578
5573 5574 5575 5576 5577 5578 5579 5580 5580 5581 5581 5581 5581 5581 5581 5580 5580 5579 5579 5579 5578 5578 5578 5578 5578 5578 5577 5577 5577 5577 5576 5576 5576 5576 5575 5575 5574 5574 5573 5572 5571 5570 5569
5564 5565 5566 5567 5568 5569 5570 5570 5571 5571 5571 5571 5571 5571 5571 5571 5570 5570 5570 5569 5569 5569 5569 5569 5569 5569 5569 5568 5568 5568 5568 5568 5567 5567 5566 5566 5565 5564 5563 5562 5561 5560 5558
5555 5556 5557 5558 5558 5559 5560 5561 5561 5561 5561 5561 5561 5561 5561 5561 5560 5560 5560 5560 5560 5560 5560 5560 5560 5560 5560 5560 5559 5559 5559 5558 5558 5558 5557 5556 5555 5554 5553 5552 5551 5549 5548
5546 5547 5548 5548 5549 5550 5550 5551 5551 5552 5552 5552 5552 5551 5551 5551 5551 5551 5551 5551 5551 5551 5551 5551 5550 5550 5550 5550 5550 5550 5549 5549 5549 5548 5547 5546 5545 5544 5543 5542 5540 5539 5537
5537 5538 5539 5539 5540 5540 5541 5542 5542 5543 5543 5542 5542 5542 5542 5542 5542 5542 5542 5542 5542 5541 5541 5541 5541 5540 5540 5540 5540 5540 5539 5539 5538 5538 5537 5536 5535 5534 5532 5531 5529 5527 5526
5529 5529 5530 5530 5531 5531 5532 5533 5533 5534 5534 5533 5533 5533 5533 5533 5532 5532 5532 5532 5532 5532 5531 5531 5531 5530 5530 5530 5530 5529 5529 5528 5528 5527 5526 5525 5524 5522 5521 5519 5518 5516 5514
5520 5521 5521 5522 5522 5523 5523 5524 5524 5524 5524 5524 5524 5523 5523 5523 5523 5523 5522 5522 5522 5522 5521 5521 5521 5520 5520 5519 5519 5518 5518 5517 5516 5516 5515 5514 5512 5511 5509 5508 5506 5504 5502
5511 5512 5512 5513 5513 5514 5514 5514 5514 5515 5514 5514 5514 5514 5513 5513 5513 5513 5512 5512 5512 5512 5511 5511 5510 5510 5509 5508 5508 5507 5507 5506 5505 5504 5503 5502 5500 5499 5497 5496 5494 5492 5490
5503 5503 5504 5504 5504 5504 5504 5504 5504 5504 5504 5504 5504 5503 5503 5503 5503 5502 5502 5501 5501 5500 5500 5500 5499 5498 5498 5497 5496 5495 5495 5494 5493 5492 5490 5489 5488 5486 5485 5483 5481 5479 5477
5494 5494 5494 5494 5494 5494 5494 5494 5494 5494 5494 5493 5493 5493 5492 5492 5492 5491 5491 5490 5490 5489 5488 5488 5487 5487 5486 5485 5484 5483 5482 5481 5480 5479 5478 5476 5475 5473 5472 5470 5468 5466 5464
5485 5485 5485 5485 5485 5484 5484 5484 5484 5483 5483 5483 5482 5482 5481 5481 5480 5480 5479 5479 5478 5477 5476 5476 5475 5474 5473 5472 5471 5470 5469 5468 5467 5466 5464 5463 5461 5460 5458 5456 5454 5452 5450
5476 5476 5476 5475 5475 5474 5474 5473 5473 5473 5472 5472 5471 5471 5470 5469 5469 5468 5467 5467 5466 5465 5464 5463 5462 5461 5460 5459 5458 5457 5456 5455 5453 5452 5450 5449 5448 5446 5444 5442 5440 5438 5436
5467 5467 5466 5466 5465 5465 5464 5463 5463 5462 5462 5461 5461 5460 5459 5458 5457 5456 5455 5454 5453 5452 5451 5450 5449 5448 5447 5446 5444 5443 5442 5440 5439 5437 5436 5435 5433 5432 5430 5428 5426 5424 5422